星链-35437(STARLINK-35437)

导读

STARLINK-35437是美国太空探索技术公司(SpaceX)于2025年11月21日发射的星链系列低轨通信卫星,属于Starlink全球卫星互联网项目。该卫星运行在近地轨道,为全球提供高速低延迟互联网服务,重点覆盖偏远地区缩小数字鸿沟,同时可为军事、航空等领域提供通信支持,是SpaceX大规模卫星星座部署中的组成部分。

基本信息
目录编号:
66563
目录名称:
STARLINK-35437
国际标识:
2025-268G
轨道中心:
EARTH
卫星名称:
星链-35437
卫星全名:
星链-35437(STARLINK-35437)
卫星状态:
在轨 (已飞行204 天)
发射日期:
2025-11-21 UTC
国别 :
美国 (US)
星等 :
--
轨道信息
数据来源 国际轨道数据
星历时间: 2026-06-11T16:10:38+0800
2天前
查看轨道信息
半长轴: 6861.171km
偏心率: 0.0000931
轨道倾角: 43.000°
近地点辐角 259.624°
升交点赤经 178.072°
平近点角 100.450°
近地点: 482.395km
远地点: 483.673km
周期: 94.266分钟
每日圈数: 15.275851
详细信息
固有亮度:
5
最大亮度:
2.5
卫星平台:
Starlink V1.0
覆盖范围:
全球
运营商:
太空探索技术公司
运营商所在国:
美国
制造商(研发单位):
太空探索技术公司
制造商所在国:
美国
使用方式:
暂无
卫星简介
Starlink 计划是 SpaceX 推出的全球卫星互联网项目,通过发射低轨道卫星,为全球尤其是偏远地区提供高速、低延迟的互联网服务。自 2019 年起,Starlink 已部署数千颗卫星,旨在缩小全球数字鸿沟,推动互联网普及。该项目还为军事、航空等行业提供通信支持,带来广泛经济效益。
2D轨道图
3D轨道图
轨道高度分析图
轨道倾角分析图
轨道综合分析图
查看轨道综合分析图